Regional Weather Roundup
Issued by NWS Jackson, KY

Home | Current Version | Previous Version | Graphics & Text | Print | Product List | Glossary On
Versions: 1 2 3 4 5 6 7 8 9 10 11 12 13 14 15 16 17 18 19 20 21 22 23 24 25 26 27 28 29 30 31 32 33 34 35 36 37 38 39 40 41 42 43 44 45 46 47 48 49 50
000
ASUS43 KJKL 160310
RWRJKL

EAST KENTUCKY HOURLY WEATHER ROUNDUP
NATIONAL WEATHER SERVICE JACKSON KY
1000 PM EST SUN JAN 15 2017

NOTE: "FAIR" INDICATES FEW OR NO CLOUDS BELOW 12,000 FEET WITH
NO SIGNIFICANT WEATHER AND/OR OBSTRUCTIONS TO VISIBILITY.

* THESE REPORTS ARE NOT UNDER NWS QUALITY CONTROL AND MAY NOT
  REPORT WEATHER SUCH AS PRECIPITATION AND FOG.

KYZ079-080-083-085-087-088-110-112-115-119-120-160400
...EASTERN KENTUCKY...

CITY           SKY/WX    TMP DP  RH WIND       PRES   REMARKS
JACKSON        CLOUDY    40  39  97 CALM      30.29F FOG
LONDON         CLOUDY    44  42  93 CALM      30.29S FOG
SOMERSET*      CLOUDY    43  43 100 CALM      30.31S
MONTICELLO*    FOG       47  46  97 N14       30.31S VSB 1/2
WILLIAMSBURG*  CLOUDY    46  46 100 CALM      30.29S
MIDDLESBORO*   CLOUDY    51  51 100 CALM      30.29S
HARLAN APT*    CLOUDY    52  50  93 CALM      30.28S
PIKE CO APT*   FOG       40  40 100 CALM      30.30S VSB 3/4
BIG SANDY APT* LGT RAIN  40  40 100 CALM      30.31S VSB 3/4
MOREHEAD APT*  CLOUDY    39  37  93 CALM      30.33S FOG
ASHLAND*       CLOUDY    39  37  93 CALM      30.33S
$$

KYZ035-036-041-042-044-050-067-078-099-160400
...CENTRAL KENTUCKY...

CITY           SKY/WX    TMP DP  RH WIND       PRES   REMARKS
MT STERLING*   CLOUDY    37  37 100 E6        30.31F WCI  33
FLEMING/MASON* CLOUDY    37  37  99 E5        30.34S FOG     WCI  33
DANVILLE*      CLOUDY    41  41 100 CALM      30.30S
LEXINGTON      CLOUDY    41  39  93 NE5       30.31R
FRANKFORT      CLOUDY    40  37  89 NE5       30.30S
LOUISVILLE     CLOUDY    41  38  89 E3        30.30F
LEBANON*       MOCLDY    41  41 100 CALM      30.29F
GLASGOW*       FOG      N/A N/A N/A NE6       30.28F VSB 1
BOWLING GREEN  CLOUDY    45  44  97 NE5       30.28F FOG
$$

KYZ091>093-OHZ055-061-077-WVZ005-015-034-035-042-160400
...SOUTHERN OHIO/WEST VIRGINIA...

CITY           SKY/WX    TMP DP  RH WIND       PRES   REMARKS
COVINGTON      CLOUDY    37  36  96 E7        30.31F FOG     WCI  32
COLUMBUS       CLOUDY    32  27  81 NE3       30.35S HAZE
DAYTON         CLOUDY    32  30  92 E3        30.34S FOG
WILMINGTON     FOG       34  34 100 SE5       30.34R VSB 3/4 WCI  30
HUNTINGTON     LGT RAIN  40  38  93 CALM      30.33S VSB 1
CHARLESTON     LGT RAIN  40  39  97 CALM      30.32S FOG
BECKLEY        LGT RAIN  44  42  93 S7        30.28S
BLUEFIELD      LGT RAIN  44  43  96 CALM      30.30R VSB 1/4
LOGAN CO APT*  MIX PCPN  41  41 100 CALM      30.29S
$$

VAZ002-007-008-TNZ017-027-036-066-071-160400
...SOUTHWEST VIRGINIA/EAST TENNESSEE...

CITY           SKY/WX    TMP DP  RH WIND       PRES   REMARKS
WISE*          CLOUDY    50  50 100 CALM      30.30S FOG
JONESVILLE*      N/A     54  54 100 CALM      30.30F
ABINGDON*      CLOUDY    56  56 100 W5        30.30R
BRISTOL        CLOUDY    55  54  96 CALM      30.29R
MORRISTOWN*    FOG       55  55 100 CALM      30.27S VSB 0
SEVIERVILLE*   CLOUDY    52  52 100 CALM      30.26S VSB 3/4
KNOXVILLE      PTCLDY    57  54  89 N3        30.25S
LAFOLLETTE*    CLOUDY    54  54 100 CALM      30.30S
OAK RIDGE      MOCLDY    56  53  90 CALM      30.28S
CROSSVILLE     MOCLDY    52  51  97 CALM      30.27F
NASHVILLE      CLOUDY    51  48  89 CALM      30.27S
$$

...KEY TO REMARKS...
VSB - VISIBILITY IN MILES
WCI - WIND CHILL INDEX
HX  - HEAT INDEX

$$



USA.gov is the U.S. government's official web portal to all federal, state and local government web resources and services.